| time (UTC) | temp F | wind direction | speed MPH | gust MPH | rain 1hr in | rain 24hr in | rain mn in | humidity % | barometer mb |
| 20260506095902 | 46 | 227 | 0.0 | 1.0 | 0.00 | 0.07 | 0.07 | 95 | 1016.5 |
| 20260506095400 | 46 | 234 | 0.0 | 0.0 | 0.00 | 0.07 | 0.07 | 95 | 1016.4 |
| 20260506094856 | 45 | 245 | 0.0 | 1.0 | 0.00 | 0.07 | 0.07 | 96 | 1016.5 |
| 20260506094355 | 46 | 316 | 2.0 | 2.0 | 0.00 | 0.07 | 0.07 | 96 | 1016.2 |
| 20260506093852 | 46 | 235 | 1.0 | 1.0 | 0.00 | 0.07 | 0.07 | 97 | 1015.8 |
| 20260506093350 | 46 | 291 | 3.0 | 5.0 | 0.00 | 0.07 | 0.07 | 97 | 1015.9 |
| 20260506092847 | 46 | 249 | 1.0 | 1.0 | 0.00 | 0.07 | 0.07 | 97 | 1015.6 |
| 20260506092345 | 46 | 276 | 1.0 | 2.0 | 0.00 | 0.07 | 0.07 | 97 | 1015.9 |
| 20260506091842 | 46 | 277 | 1.0 | 2.0 | 0.00 | 0.07 | 0.07 | 97 | 1016.1 |
| 20260506091340 | 46 | 258 | 1.0 | 1.0 | 0.00 | 0.07 | 0.07 | 97 | 1015.9 |
| 20260506090837 | 45 | 235 | 0.0 | 0.0 | 0.00 | 0.07 | 0.07 | 97 | 1015.2 |
| 20260506090335 | 45 | 238 | 0.0 | 0.0 | 0.00 | 0.07 | 0.07 | 97 | 1015.0 |
| 20260506085831 | 45 | 249 | 0.0 | 1.0 | 0.00 | 0.07 | 0.07 | 97 | 1015.0 |
| 20260506085327 | 45 | 259 | 1.0 | 1.0 | 0.00 | 0.07 | 0.07 | 97 | 1014.7 |
| 20260506084824 | 45 | 224 | 0.0 | 0.0 | 0.00 | 0.07 | 0.07 | 97 | 1014.6 |
| 20260506084320 | 45 | 241 | 0.0 | 0.0 | 0.00 | 0.07 | 0.07 | 97 | 1014.5 |
| 20260506083817 | 45 | 274 | 0.0 | 0.0 | 0.00 | 0.07 | 0.07 | 97 | 1014.8 |
| 20260506083315 | 46 | 231 | 0.0 | 0.0 | 0.00 | 0.07 | 0.07 | 97 | 1014.8 |
| 20260506082812 | 46 | 194 | 0.0 | 0.0 | 0.00 | 0.07 | 0.07 | 97 | 1014.8 |
| 20260506082308 | 46 | 223 | 0.0 | 0.0 | 0.00 | 0.07 | 0.07 | 97 | 1015.1 |
| 20260506081805 | 45 | 259 | 1.0 | 1.0 | 0.00 | 0.07 | 0.07 | 97 | 1015.5 |
| 20260506081303 | 45 | 212 | 0.0 | 0.0 | 0.00 | 0.07 | 0.07 | 97 | 1015.3 |
| 20260506080800 | 46 | 235 | 0.0 | 0.0 | 0.00 | 0.07 | 0.07 | 97 | 1015.2 |
| 20260506080256 | 46 | 316 | 1.0 | 2.0 | 0.05 | 0.07 | 0.07 | 97 | 1015.5 |
| 20260506073240 | 46 | 233 | 1.0 | 1.0 | 0.00 | 0.05 | 0.05 | 97 | 1016.0 |
| 20260506072737 | 46 | 288 | 1.0 | 2.0 | 0.05 | 0.05 | 0.05 | 97 | 1015.8 |
| 20260506072235 | 46 | 267 | 2.0 | 2.0 | 0.12 | 0.05 | 0.05 | 97 | 1016.0 |
| 20260506071733 | 46 | 209 | 1.0 | 1.0 | 0.07 | 0.04 | 0.04 | 97 | 1016.1 |
| 20260506071230 | 46 | 216 | 0.0 | 0.0 | 0.00 | 0.03 | 0.03 | 97 | 1015.9 |
| 20260506070727 | 46 | 234 | 1.0 | 2.0 | 0.00 | 0.03 | 0.03 | 97 | 1016.0 |
| 20260506070224 | 46 | 243 | 1.0 | 2.0 | 0.00 | 0.03 | 0.03 | 97 | 1016.5 |
| 20260506062201 | 46 | 227 | 0.0 | 0.0 | 0.00 | 0.03 | 0.03 | 97 | 1015.7 |
| 20260506061656 | 45 | 248 | 1.0 | 1.0 | 0.00 | 0.03 | 0.03 | 97 | 1015.7 |
| 20260506061154 | 45 | 230 | 0.0 | 0.0 | 0.00 | 0.03 | 0.03 | 97 | 1015.8 |
| 20260506060653 | 45 | 3 | 2.0 | 2.0 | 0.00 | 0.03 | 0.03 | 97 | 1015.8 |
| 20260506060149 | 45 | 358 | 2.0 | 2.0 | 0.00 | 0.03 | 0.03 | 97 | 1015.5 |
| 20260506051121 | 45 | 247 | 0.0 | 0.0 | 0.00 | 0.00 | 0.00 | 97 | 1014.8 |
| 20260506050620 | 45 | 211 | 0.0 | 0.0 | 0.05 | 0.00 | 0.00 | 97 | 1015.1 |
| 20260506050116 | 45 | 226 | 0.0 | 0.0 | 0.05 | 0.00 | 0.00 | 97 | 1015.0 |
| 20260506045110 | 45 | 162 | 0.0 | 0.0 | 0.00 | 0.55 | 0.55 | 97 | 1014.6 |
| 20260506044608 | 45 | 210 | 0.0 | 0.0 | 0.00 | 0.55 | 0.55 | 97 | 1014.8 |
| 20260506044104 | 45 | 226 | 0.0 | 0.0 | 0.00 | 0.55 | 0.55 | 97 | 1014.6 |
| 20260506043601 | 45 | 240 | 0.0 | 0.0 | 0.00 | 0.55 | 0.55 | 97 | 1014.4 |
| 20260506043100 | 45 | 215 | 0.0 | 0.0 | 0.00 | 0.55 | 0.55 | 96 | 1014.3 |
| 20260506042558 | 45 | 214 | 0.0 | 0.0 | 0.00 | 0.55 | 0.55 | 96 | 1014.3 |
| 20260506042056 | 45 | 207 | 0.0 | 0.0 | 0.07 | 0.55 | 0.55 | 96 | 1014.0 |
| 20260506041554 | 45 | 184 | 0.0 | 0.0 | 0.07 | 0.55 | 0.55 | 96 | 1014.4 |
| 20260506041051 | 45 | 216 | 0.0 | 0.0 | 0.05 | 0.54 | 0.54 | 96 | 1014.5 |
| 20260506040549 | 45 | 194 | 0.0 | 0.0 | 0.12 | 0.54 | 0.54 | 96 | 1014.5 |
| 20260506040044 | 45 | 196 | 0.0 | 0.0 | 0.12 | 0.53 | 0.53 | 96 | 1014.6 |
| 20260506035542 | 45 | 202 | 0.0 | 0.0 | 0.05 | 0.52 | 0.52 | 96 | 1014.4 |
| 20260506035038 | 45 | 211 | 0.0 | 0.0 | 0.05 | 0.52 | 0.52 | 96 | 1014.8 |
| 20260506034536 | 45 | 194 | 0.0 | 0.0 | 0.00 | 0.51 | 0.51 | 96 | 1014.8 |
| 20260506034032 | 45 | 204 | 0.0 | 0.0 | 0.07 | 0.51 | 0.51 | 96 | 1014.8 |
| 20260506033530 | 45 | 192 | 0.0 | 0.0 | 0.07 | 0.51 | 0.51 | 96 | 1014.7 |
| 20260506033027 | 45 | 195 | 0.0 | 0.0 | 0.00 | 0.50 | 0.50 | 96 | 1014.4 |
| 20260506032524 | 45 | 153 | 0.0 | 1.0 | 0.05 | 0.50 | 0.50 | 96 | 1014.6 |
| 20260506032021 | 45 | 89 | 1.0 | 1.0 | 0.07 | 0.49 | 0.49 | 96 | 1014.5 |
| 20260506031519 | 45 | 198 | 0.0 | 0.0 | 0.19 | 0.49 | 0.49 | 96 | 1014.3 |
| 20260506031015 | 45 | 166 | 1.0 | 1.0 | 0.17 | 0.48 | 0.48 | 96 | 1014.3 |
| 20260506030513 | 45 | 182 | 0.0 | 0.0 | 0.05 | 0.46 | 0.46 | 96 | 1014.1 |
| 20260506030010 | 45 | 89 | 2.0 | 3.0 | 0.07 | 0.45 | 0.45 | 96 | 1014.2 |
| 20260506025507 | 45 | 82 | 0.0 | 1.0 | 0.14 | 0.45 | 0.45 | 96 | 1014.3 |
| 20260506025004 | 45 | 198 | 0.0 | 0.0 | 0.07 | 0.44 | 0.44 | 96 | 1014.8 |
| 20260506024500 | 45 | 214 | 0.0 | 0.0 | 0.05 | 0.43 | 0.43 | 96 | 1014.4 |
| 20260506023956 | 45 | 193 | 0.0 | 0.0 | 0.07 | 0.42 | 0.42 | 96 | 1014.5 |
| 20260506023453 | 45 | 213 | 0.0 | 0.0 | 0.12 | 0.42 | 0.42 | 96 | 1014.3 |
| 20260506022950 | 45 | 203 | 0.0 | 0.0 | 0.12 | 0.41 | 0.41 | 96 | 1014.0 |
| 20260506022448 | 45 | 214 | 0.0 | 0.0 | 0.07 | 0.40 | 0.40 | 96 | 1014.1 |
| 20260506021945 | 45 | 215 | 0.0 | 0.0 | 0.05 | 0.39 | 0.39 | 95 | 1014.1 |
| 20260506021442 | 45 | 237 | 0.0 | 0.0 | 0.12 | 0.39 | 0.39 | 95 | 1014.1 |
| 20260506020939 | 45 | 227 | 0.0 | 0.0 | 0.12 | 0.38 | 0.38 | 95 | 1014.1 |
| 20260506020437 | 45 | 213 | 0.0 | 0.0 | 0.05 | 0.37 | 0.37 | 95 | 1014.0 |
| 20260506015934 | 45 | 249 | 0.0 | 0.0 | 0.07 | 0.36 | 0.36 | 95 | 1013.9 |
| 20260506015432 | 45 | 226 | 0.0 | 0.0 | 0.07 | 0.36 | 0.36 | 94 | 1013.7 |
| 20260506014928 | 45 | 206 | 0.0 | 0.0 | 0.00 | 0.35 | 0.35 | 94 | 1013.9 |
| 20260506014426 | 45 | 204 | 0.0 | 0.0 | 0.00 | 0.35 | 0.35 | 94 | 1013.8 |
| 20260506013922 | 45 | 244 | 1.0 | 1.0 | 0.00 | 0.35 | 0.35 | 94 | 1013.8 |
| 20260506013420 | 45 | 206 | 0.0 | 0.0 | 0.00 | 0.35 | 0.35 | 94 | 1013.8 |
| 20260506012916 | 45 | 226 | 0.0 | 1.0 | 0.00 | 0.35 | 0.35 | 94 | 1013.2 |
| 20260506012412 | 45 | 210 | 0.0 | 0.0 | 0.00 | 0.35 | 0.35 | 94 | 1013.0 |
| 20260506011910 | 45 | 238 | 1.0 | 1.0 | 0.05 | 0.35 | 0.35 | 94 | 1012.8 |
| 20260506011407 | 45 | 230 | 1.0 | 1.0 | 0.05 | 0.35 | 0.35 | 94 | 1012.8 |
| 20260506010904 | 45 | 223 | 1.0 | 1.0 | 0.00 | 0.34 | 0.34 | 94 | 1012.5 |
| 20260506010402 | 45 | 212 | 0.0 | 0.0 | 0.00 | 0.34 | 0.34 | 94 | 1012.7 |
| 20260506005858 | 45 | 272 | 1.0 | 1.0 | 0.00 | 0.34 | 0.34 | 94 | 1013.1 |
| 20260506005356 | 45 | 274 | 2.0 | 2.0 | 0.00 | 0.34 | 0.34 | 94 | 1013.2 |
| 20260506004851 | 45 | 179 | 0.0 | 0.0 | 0.00 | 0.34 | 0.34 | 94 | 1013.3 |
| 20260506004349 | 45 | 238 | 0.0 | 1.0 | 0.00 | 0.34 | 0.34 | 94 | 1012.9 |
| 20260506003845 | 46 | 328 | 1.0 | 2.0 | 0.00 | 0.34 | 0.34 | 95 | 1013.2 |
| 20260506003341 | 46 | 299 | 2.0 | 2.0 | 0.00 | 0.34 | 0.34 | 95 | 1013.1 |
| 20260506002838 | 46 | 314 | 2.0 | 3.0 | 0.00 | 0.34 | 0.34 | 94 | 1013.0 |
| 20260506002334 | 46 | 339 | 2.0 | 2.0 | 0.00 | 0.34 | 0.34 | 94 | 1013.1 |
| 20260506001830 | 46 | 268 | 1.0 | 1.0 | 0.00 | 0.34 | 0.34 | 94 | 1013.2 |
| 20260506001327 | 46 | 319 | 3.0 | 3.0 | 0.00 | 0.34 | 0.34 | 94 | 1012.8 |
| 20260506000824 | 46 | 262 | 0.0 | 1.0 | 0.00 | 0.34 | 0.34 | 94 | 1012.8 |
| 20260506000323 | 46 | 312 | 1.0 | 2.0 | 0.00 | 0.34 | 0.34 | 94 | 1012.8 |
| 20260505235819 | 46 | 306 | 2.0 | 2.0 | 0.00 | 0.34 | 0.34 | 94 | 1013.1 |
| 20260505235316 | 46 | 226 | 0.0 | 0.0 | 0.00 | 0.34 | 0.34 | 94 | 1012.7 |
| 20260505234813 | 46 | 337 | 2.0 | 2.0 | 0.00 | 0.34 | 0.34 | 94 | 1013.1 |
| 20260505234311 | 46 | 210 | 1.0 | 1.0 | 0.00 | 0.34 | 0.34 | 94 | 1012.7 |
| 20260505233807 | 46 | 359 | 4.0 | 5.0 | 0.00 | 0.34 | 0.34 | 94 | 1013.0 |
| 20260505233305 | 46 | 337 | 2.0 | 2.0 | 0.00 | 0.34 | 0.34 | 94 | 1012.9 |
| 20260505232802 | 47 | 266 | 1.0 | 2.0 | 0.00 | 0.34 | 0.34 | 94 | 1012.6 |
| 20260505232300 | 46 | 319 | 3.0 | 3.0 | 0.00 | 0.34 | 0.34 | 93 | 1012.6 |
| 20260505231756 | 47 | 211 | 0.0 | 0.0 | 0.00 | 0.34 | 0.34 | 93 | 1012.5 |
| 20260505231255 | 47 | 219 | 0.0 | 0.0 | 0.00 | 0.34 | 0.34 | 93 | 1012.8 |
| 20260505230753 | 47 | 326 | 1.0 | 1.0 | 0.00 | 0.34 | 0.34 | 93 | 1012.7 |
| 20260505230249 | 47 | 290 | 1.0 | 2.0 | 0.00 | 0.34 | 0.34 | 93 | 1012.2 |
| 20260505225746 | 47 | 358 | 2.0 | 2.0 | 0.00 | 0.34 | 0.34 | 94 | 1012.2 |
| 20260505225243 | 47 | 290 | 1.0 | 1.0 | 0.00 | 0.34 | 0.34 | 94 | 1012.4 |
| 20260505224738 | 48 | 241 | 1.0 | 2.0 | 0.00 | 0.34 | 0.34 | 94 | 1012.4 |
| 20260505224236 | 47 | 258 | 1.0 | 1.0 | 0.07 | 0.34 | 0.34 | 94 | 1012.3 |
| 20260505223733 | 47 | 106 | 1.0 | 2.0 | 0.07 | 0.34 | 0.34 | 94 | 1012.0 |
| 20260505223229 | 48 | 256 | 1.0 | 2.0 | 0.00 | 0.33 | 0.33 | 94 | 1012.3 |
| 20260505222725 | 48 | 227 | 0.0 | 0.0 | 0.00 | 0.33 | 0.33 | 95 | 1012.7 |
| 20260505222221 | 48 | 229 | 0.0 | 0.0 | 0.07 | 0.33 | 0.33 | 95 | 1012.3 |
| 20260505221719 | 48 | 355 | 2.0 | 2.0 | 0.00 | 0.32 | 0.32 | 94 | 1012.4 |
| 20260505221215 | 48 | 218 | 0.0 | 0.0 | 0.00 | 0.32 | 0.32 | 94 | 1012.1 |
| 20260505220712 | 48 | 214 | 0.0 | 0.0 | 0.00 | 0.32 | 0.32 | 94 | 1012.3 |
| 20260505220210 | 48 | 217 | 0.0 | 0.0 | 0.05 | 0.32 | 0.32 | 94 | 1012.1 |
| 20260505215708 | 48 | 219 | 0.0 | 0.0 | 0.05 | 0.32 | 0.32 | 94 | 1012.1 |
| 20260505215206 | 48 | 204 | 0.0 | 0.0 | 0.07 | 0.31 | 0.31 | 94 | 1011.8 |
| 20260505214703 | 48 | 249 | 2.0 | 2.0 | 0.07 | 0.31 | 0.31 | 94 | 1012.3 |
| 20260505214200 | 48 | 192 | 0.0 | 0.0 | 0.05 | 0.30 | 0.30 | 94 | 1012.5 |
| 20260505213658 | 48 | 202 | 0.0 | 0.0 | 0.05 | 0.30 | 0.30 | 94 | 1012.2 |
| 20260505213155 | 48 | 225 | 1.0 | 1.0 | 0.00 | 0.29 | 0.29 | 93 | 1012.4 |
| 20260505212650 | 48 | 266 | 1.0 | 2.0 | 0.00 | 0.29 | 0.29 | 93 | 1012.4 |
| 20260505212148 | 48 | 338 | 2.0 | 2.0 | 0.00 | 0.29 | 0.29 | 92 | 1012.5 |
| 20260505211645 | 48 | 184 | 0.0 | 0.0 | 0.00 | 0.29 | 0.29 | 92 | 1012.4 |
| 20260505211142 | 48 | 176 | 0.0 | 0.0 | 0.00 | 0.29 | 0.29 | 92 | 1012.3 |
| 20260505210639 | 48 | 196 | 0.0 | 0.0 | 0.00 | 0.29 | 0.29 | 92 | 1012.1 |
| 20260505210135 | 48 | 196 | 0.0 | 0.0 | 0.00 | 0.29 | 0.29 | 92 | 1012.2 |
| 20260505205632 | 48 | 268 | 1.0 | 1.0 | 0.00 | 0.29 | 0.29 | 92 | 1012.5 |
| 20260505205130 | 48 | 277 | 2.0 | 2.0 | 0.00 | 0.29 | 0.29 | 92 | 1012.4 |
| 20260505204622 | 48 | 224 | 1.0 | 1.0 | 0.00 | 0.29 | 0.29 | 91 | 1012.2 |
| 20260505204119 | 48 | 343 | 2.0 | 2.0 | 0.00 | 0.29 | 0.29 | 91 | 1012.3 |
| 20260505203615 | 48 | 261 | 1.0 | 1.0 | 0.00 | 0.29 | 0.29 | 90 | 1012.1 |
| 20260505203112 | 48 | 252 | 2.0 | 2.0 | 0.00 | 0.29 | 0.29 | 90 | 1012.0 |
| 20260505202603 | 48 | 190 | 1.0 | 1.0 | 0.00 | 0.29 | 0.29 | 90 | 1011.9 |
| 20260505202059 | 48 | 210 | 0.0 | 0.0 | 0.00 | 0.29 | 0.29 | 91 | 1012.1 |
| 20260505201556 | 48 | 235 | 2.0 | 2.0 | 0.00 | 0.29 | 0.29 | 91 | 1012.1 |
| 20260505201054 | 48 | 304 | 2.0 | 3.0 | 0.00 | 0.29 | 0.29 | 91 | 1012.5 |
| 20260505200551 | 48 | 243 | 2.0 | 2.0 | 0.00 | 0.29 | 0.29 | 91 | 1012.3 |
| 20260505200048 | 48 | 227 | 1.0 | 1.0 | 0.00 | 0.29 | 0.29 | 92 | 1012.3 |
| 20260505195544 | 48 | 354 | 3.0 | 6.0 | 0.00 | 0.29 | 0.29 | 92 | 1012.2 |
| 20260505195041 | 48 | 248 | 1.0 | 1.0 | 0.00 | 0.29 | 0.29 | 92 | 1012.3 |
| 20260505194533 | 48 | 231 | 0.0 | 0.0 | 0.00 | 0.29 | 0.29 | 91 | 1012.3 |
| 20260505194028 | 49 | 293 | 1.0 | 2.0 | 0.00 | 0.29 | 0.29 | 91 | 1012.1 |
| 20260505193526 | 49 | 153 | 2.0 | 2.0 | 0.07 | 0.29 | 0.29 | 90 | 1012.1 |
| 20260505193023 | 48 | 279 | 1.0 | 1.0 | 0.07 | 0.29 | 0.29 | 90 | 1012.0 |
| 20260505192521 | 48 | 232 | 0.0 | 0.0 | 0.00 | 0.28 | 0.28 | 90 | 1012.5 |
| 20260505192019 | 48 | 77 | 2.0 | 2.0 | 0.00 | 0.28 | 0.28 | 90 | 1012.5 |
| 20260505191517 | 48 | 217 | 0.0 | 0.0 | 0.00 | 0.28 | 0.28 | 90 | 1012.4 |
| 20260505191014 | 48 | 162 | 1.0 | 1.0 | 0.00 | 0.28 | 0.28 | 90 | 1012.3 |
| 20260505190509 | 48 | 294 | 1.0 | 1.0 | 0.00 | 0.28 | 0.28 | 90 | 1012.6 |
| 20260505190005 | 47 | 218 | 0.0 | 0.0 | 0.00 | 0.28 | 0.28 | 90 | 1012.6 |
| 20260505185502 | 47 | 250 | 1.0 | 2.0 | 0.00 | 0.28 | 0.28 | 90 | 1012.5 |
| 20260505184958 | 47 | 67 | 1.0 | 1.0 | 0.00 | 0.28 | 0.28 | 90 | 1012.8 |
| 20260505184455 | 47 | 196 | 0.0 | 0.0 | 0.00 | 0.28 | 0.28 | 90 | 1012.8 |
| 20260505183951 | 48 | 329 | 5.0 | 6.0 | 0.00 | 0.28 | 0.28 | 90 | 1012.4 |
| 20260505183449 | 48 | 243 | 0.0 | 0.0 | 0.00 | 0.28 | 0.28 | 90 | 1011.9 |
| 20260505182945 | 48 | 228 | 0.0 | 1.0 | 0.00 | 0.28 | 0.28 | 90 | 1012.4 |
| 20260505182442 | 48 | 191 | 1.0 | 1.0 | 0.00 | 0.28 | 0.28 | 90 | 1012.5 |
| 20260505181938 | 48 | 279 | 1.0 | 2.0 | 0.00 | 0.28 | 0.28 | 89 | 1012.5 |
| 20260505181436 | 48 | 12 | 5.0 | 6.0 | 0.05 | 0.28 | 0.28 | 88 | 1012.9 |
| 20260505180933 | 49 | 318 | 3.0 | 3.0 | 0.05 | 0.28 | 0.28 | 86 | 1012.9 |
| 20260505180429 | 50 | 341 | 2.0 | 3.0 | 0.00 | 0.27 | 0.27 | 84 | 1012.3 |
| 20260505175926 | 50 | 223 | 0.0 | 1.0 | 0.00 | 0.27 | 0.27 | 83 | 1012.6 |
| 20260505175422 | 50 | 331 | 4.0 | 5.0 | 0.00 | 0.27 | 0.27 | 82 | 1012.4 |
| 20260505174918 | 50 | 216 | 0.0 | 0.0 | 0.00 | 0.27 | 0.27 | 82 | 1012.3 |
| 20260505174416 | 50 | 331 | 1.0 | 2.0 | 0.00 | 0.27 | 0.27 | 83 | 1012.2 |
| 20260505173912 | 50 | 222 | 0.0 | 0.0 | 0.00 | 0.27 | 0.27 | 83 | 1012.7 |
| 20260505173408 | 50 | 294 | 2.0 | 2.0 | 0.00 | 0.27 | 0.27 | 82 | 1012.5 |
| 20260505172906 | 51 | 1 | 4.0 | 5.0 | 0.00 | 0.27 | 0.27 | 82 | 1012.6 |
| 20260505172404 | 51 | 1 | 5.0 | 8.0 | 0.00 | 0.27 | 0.27 | 82 | 1013.0 |
| 20260505171903 | 51 | 358 | 5.0 | 6.0 | 0.00 | 0.27 | 0.27 | 84 | 1012.8 |
| 20260505171400 | 51 | 359 | 5.0 | 6.0 | 0.00 | 0.27 | 0.27 | 82 | 1012.6 |
| 20260505170856 | 52 | 298 | 2.0 | 2.0 | 0.00 | 0.27 | 0.27 | 84 | 1012.2 |
| 20260505170354 | 52 | 233 | 2.0 | 2.0 | 0.00 | 0.27 | 0.27 | 84 | 1011.9 |
| 20260505165849 | 52 | 299 | 2.0 | 3.0 | 0.00 | 0.27 | 0.27 | 84 | 1011.7 |
| 20260505165344 | 52 | 48 | 1.0 | 2.0 | 0.00 | 0.27 | 0.27 | 86 | 1011.9 |
| 20260505164840 | 52 | 245 | 1.0 | 2.0 | 0.00 | 0.27 | 0.27 | 85 | 1011.8 |
| 20260505164337 | 52 | 301 | 3.0 | 3.0 | 0.00 | 0.27 | 0.27 | 85 | 1012.1 |
| 20260505163836 | 52 | 336 | 3.0 | 5.0 | 0.00 | 0.27 | 0.27 | 85 | 1011.5 |
| 20260505163334 | 52 | 160 | 1.0 | 1.0 | 0.00 | 0.27 | 0.27 | 86 | 1011.8 |
| 20260505162832 | 52 | 199 | 0.0 | 0.0 | 0.00 | 0.27 | 0.27 | 87 | 1012.0 |
| 20260505162328 | 52 | 191 | 0.0 | 1.0 | 0.00 | 0.27 | 0.27 | 88 | 1012.0 |
| 20260505161825 | 51 | 255 | 1.0 | 1.0 | 0.00 | 0.27 | 0.27 | 89 | 1012.0 |
| 20260505161322 | 51 | 265 | 1.0 | 2.0 | 0.00 | 0.27 | 0.27 | 90 | 1011.6 |
| 20260505160820 | 50 | 193 | 0.0 | 0.0 | 0.07 | 0.27 | 0.27 | 90 | 1011.8 |
| 20260505160318 | 50 | 321 | 0.0 | 0.0 | 0.07 | 0.27 | 0.27 | 90 | 1012.0 |
| 20260505153256 | 51 | 13 | 3.0 | 3.0 | 0.00 | 0.23 | 0.23 | 83 | 1013.4 |
| 20260505152754 | 51 | 258 | 1.0 | 2.0 | 0.00 | 0.23 | 0.23 | 82 | 1013.4 |
| 20260505152249 | 51 | 337 | 5.0 | 6.0 | 0.00 | 0.23 | 0.23 | 81 | 1013.2 |
| 20260505151744 | 52 | 348 | 3.0 | 5.0 | 0.00 | 0.23 | 0.23 | 81 | 1012.7 |
| 20260505151242 | 52 | 347 | 4.0 | 6.0 | 0.00 | 0.23 | 0.23 | 82 | 1012.4 |
| 20260505150738 | 52 | 314 | 3.0 | 5.0 | 0.00 | 0.23 | 0.23 | 81 | 1011.9 |
| 20260505150235 | 53 | 340 | 2.0 | 2.0 | 0.00 | 0.23 | 0.23 | 82 | 1011.6 |
| 20260505140200 | 51 | 149 | 1.0 | 2.0 | 0.00 | 0.23 | 0.23 | 86 | 1010.6 |
| 20260505130124 | 50 | 330 | 2.0 | 2.0 | 0.00 | 0.23 | 0.23 | 88 | 1010.7 |
| 20260505124613 | 50 | 240 | 3.0 | 3.0 | 0.00 | 0.23 | 0.23 | 90 | 1010.0 |
| 20260505124110 | 50 | 85 | 1.0 | 2.0 | 0.00 | 0.23 | 0.23 | 91 | 1010.0 |
| 20260505123606 | 50 | 232 | 2.0 | 3.0 | 0.00 | 0.23 | 0.23 | 92 | 1009.9 |
| 20260505123103 | 50 | 173 | 0.0 | 0.0 | 0.00 | 0.23 | 0.23 | 92 | 1009.9 |
| 20260505122559 | 50 | 188 | 2.0 | 3.0 | 0.00 | 0.23 | 0.23 | 93 | 1009.7 |
| 20260505122056 | 49 | 189 | 0.0 | 0.0 | 0.00 | 0.23 | 0.23 | 94 | 1009.8 |
| 20260505121553 | 50 | 173 | 2.0 | 2.0 | 0.00 | 0.23 | 0.23 | 94 | 1009.7 |
| 20260505121049 | 49 | 157 | 2.0 | 2.0 | 0.00 | 0.23 | 0.23 | 94 | 1010.1 |
| 20260505120546 | 50 | 218 | 0.0 | 0.0 | 0.00 | 0.23 | 0.23 | 95 | 1009.9 |
| 20260505120042 | 49 | 136 | 2.0 | 2.0 | 0.00 | 0.23 | 0.23 | 95 | 1009.7 |
| 20260505115536 | 49 | 162 | 2.0 | 3.0 | 0.00 | 0.23 | 0.23 | 95 | 1009.9 |
| 20260505115034 | 50 | 215 | 0.0 | 1.0 | 0.00 | 0.23 | 0.23 | 95 | 1010.6 |
| 20260505114531 | 50 | 237 | 1.0 | 1.0 | 0.00 | 0.23 | 0.23 | 94 | 1010.6 |
| 20260505114027 | 50 | 347 | 3.0 | 5.0 | 0.00 | 0.23 | 0.23 | 94 | 1010.7 |
| 20260505113524 | 50 | 322 | 2.0 | 2.0 | 0.00 | 0.23 | 0.23 | 94 | 1010.7 |
| 20260505113020 | 50 | 281 | 3.0 | 5.0 | 0.00 | 0.23 | 0.23 | 94 | 1010.2 |
| 20260505112516 | 50 | 358 | 1.0 | 2.0 | 0.00 | 0.23 | 0.23 | 94 | 1009.9 |
| 20260505112014 | 49 | 249 | 2.0 | 3.0 | 0.00 | 0.23 | 0.23 | 94 | 1009.5 |
| 20260505111508 | 49 | 186 | 0.0 | 1.0 | 0.00 | 0.23 | 0.23 | 94 | 1009.1 |
| 20260505111005 | 49 | 32 | 2.0 | 2.0 | 0.00 | 0.23 | 0.23 | 94 | 1008.7 |
| 20260505110501 | 49 | 350 | 3.0 | 5.0 | 0.00 | 0.23 | 0.23 | 94 | 1008.8 |
| 20260505101932 | 50 | 276 | 3.0 | 5.0 | 0.00 | 0.23 | 0.23 | 94 | 1007.9 |
| 20260505101426 | 50 | 237 | 1.0 | 1.0 | 0.00 | 0.23 | 0.23 | 93 | 1008.2 |
| 20260505100922 | 51 | 134 | 1.0 | 1.0 | 0.00 | 0.23 | 0.23 | 93 | 1008.5 |
| 20260505100420 | 51 | 217 | 3.0 | 3.0 | 0.07 | 0.23 | 0.23 | 93 | 1008.6 |